SCP
0 0 0 0 0 0 0 0 0 0 0 0 0 0 0 0 0 0 0 0 0 0 0 0 0 0 0 0 0 0 0 0 0 0 0 0 0 0 0 0 0 0 0
0 0 0 0 0 0 0 0 0 0 0 0 0 0 0 0 0 0 0 0 0 0 0 0 0 0 0 0 0 0 0 0 0 0 0 0 0 0 0 0 0 0 0
0 0 0 0 0 0 0 0 0 0 0 0 0 0 0 0 0 0 0 0 0 0 0 0 0 0 0 0 0 0 0 0 0 0 0 0 0 0 0 0 0 0 0
0 0 0 0 0 0 0 0 0 0 0 0 0 0 0 0 0 0 0 0 0 0 0 0 0 0 0 0 0 0 0 0 0 0 0 0 0 0 0 0 0 0 0
0 0 0 0 0 0 0 0 0 0 0 0 0 0 0 0 0 0 0 0 0 0 0 0 0 0 0 0 0 0 0 0 0 0 0 0 0 0 0 0 0 0 0
0 0 0 0 0 0 0 0 0 0 0 0 0 0 0 0 0 0 0 0 0 0 0 0 0 0 0 0 0 0 0 0 0 0 0 0 0 0 0 0 0 0 0
0 0 0 0 0 0 0 0 0 0 0 0 0 0 0 0 0 0 0 0 0 0 0 0 0 0 0 0 0 0 0 0 0 0 0 0 0 0 0 0 0 0 0
0 0 0 0 0 0 0 0 0 0 0 0 0 0 0 0 0 0 0 0 0 0 0 0 0 0 0 0 0 0 0 0 0 0 0 0 0 0 0 0 0 0 0
0 0 0 0 0 0 0 0 0 0 0 0 0 0 0 0 0 0 0 0 0 0 0 0 0 0 0 0 0 0 0 0 0 0 0 0 0 0 0 0 0 0 0
0 0 0 0 0 0 0 0 0 0 0 0 0 0 0 0 0 0 0 0 0 0 0 0 0 0 0 0 0 0 0 0 0 0 0 0 0 0 0 0 0 0 0
0 0 0 0 0 0 0 0 0 0 0 0 0 0 0 0 0 0 0 0 0 0 0 0 0 0 0 0 0 0 0 0 0 0 0 0 0 0 0 0 0 0 0
0 0 0 0 0 0 0 0 0 0 0 0 0 0 0 0 0 0 0 0 0 0 0 0 0 0 0 0 0 0 0 0 0 0 0 0 0 0 0 0 0 0 0
0 0 0 0 0 0 0 0 0 0 0 0 0 0 0 0 0 0 0 0 0 0 0 0 0 0 0 0 0 0 0 0 0 0 0 0 0 0 0 0 0 0 0
0 0 0 0 0 0 0 0 0 0 0 0 0 0 0 0 0 0 0 0 0 0 0 0 0 0 0 0 0 0 0 0 0 0 0 0 0 0 0 0 0 0 0
0 0 0 0 0 0 0 0 0 0 0 0 0 0 0 0 0 0 0 0 0 0 0 0 0 0 0 0 0 0 0 0 0 0 0 0 0 0 0 0 0 0 0
0 0 0 0 0 0 0 0 0 0 0 0 0 0 0 0 0 0 0 0 0 0 0 0 0 0 0 0 0 0 0 0 0 0 0 0 0 0 0 0 0 0 0
0 0 0 0 0 0 0 0 0 0 0 0 0 0 0 0 0 0 0 0 0 0 0 0 0 0 0 0 0 0 0 0 0 0 0 0 0 0 0 0 0 0 0
0 0 0 0 0 0 0 0 0 0 0 0 0 0 0 0 0 0 0 0 0 0 0 0 0 0 0 0 0 0 0 0 0 0 0 0 0 0 0 0 0 0 0
1 0 0 0 0 0 0 0 0 0 0 0 0 0 0 0 0 0 0 0 0 0 0 0 0 0 0 0 0 0 0 0 0 0 0 0 0 0 0 0 0 0 0
1 1 1 0 0 0 0 0 0 0 0 0 0 0 0 0 0 0 0 0 0 0 0 0 0 0 0 0 0 0 0 0 0 0 0 0 0 0 0 0 0 0 0
1 1 1 1 0 0 0 0 0 0 0 0 0 0 0 0 0 0 0 0 0 0 0 0 0 0 0 0 0 0 0 0 0 0 0 0 0 0 0 0 0 0 0
1 1 1 1 1 0 0 0 0 0 0 0 0 0 0 0 0 0 0 0 0 0 0 0 0 0 0 0 0 0 0 0 0 0 0 0 0 0 0 0 0 0 0
1 1 1 1 1 1 0 0 0 0 0 0 0 0 0 0 0 0 0 0 0 0 0 0 0 0 0 0 0 0 0 0 0 0 0 0 0 0 0 0 0 0 0
1 1 1 1 1 1 0 0 0 0 0 0 0 0 0 0 0 0 0 0 0 0 0 0 0 0 0 0 0 0 0 0 0 0 0 0 0 0 0 0 0 0 0
1 1 1 1 1 1 1 0 0 0 0 0 0 0 0 0 0 0 0 0 0 0 0 0 0 0 0 0 0 0 0 0 0 0 0 0 0 0 0 0 0 0 0
1 1 1 1 1 1 1 1 0 0 0 0 0 0 0 0 0 0 0 0 0 0 0 0 0 0 0 0 0 0 0 0 0 0 0 0 0 0 0 0 0 0 0
Wind_Speed
9 11 12 12 11 11 10 10 10 10 10 10 10 10 10 11 11 11 12 13 14 14 14 13 12 11 11 11 11 11 11 11 11 11 11 10 9 9 9 10 10 9 12
9 12 12 11 11 11 10 10 10 10 10 10 10 9 10 10 10 10 11 12 13 14 14 13 12 12 12 11 11 10 10 10 10 10 11 10 9 8 9 8 9 8 12
10 11 12 12 11 11 10 10 9 10 10 10 9 9 9 9 9 10 11 12 13 13 13 13 12 12 11 11 10 9 8 8 8 9 9 7 7 8 10 11 11 12 11
10 10 11 13 12 12 11 10 10 10 9 9 9 9 8 8 8 9 10 11 12 13 13 13 12 11 11 11 10 9 8 8 7 7 5 6 7 9 10 10 10 11 11
10 12 12 12 12 12 11 10 10 10 9 9 9 9 8 8 8 9 9 10 11 12 12 12 12 11 11 10 10 9 8 7 7 6 3 6 6 9 10 10 10 10 10
11 12 12 13 12 12 11 10 10 10 10 9 9 9 8 8 8 8 9 9 11 11 11 12 12 11 10 9 9 8 7 7 5 4 4 7 7 10 10 10 10 9 9
11 11 11 13 12 11 11 10 10 10 9 9 9 9 8 8 8 8 8 9 10 11 11 12 11 10 10 9 8 7 7 7 5 2 4 6 7 10 11 10 9 9 9
10 11 10 12 12 11 10 10 10 9 9 9 9 8 8 7 7 8 8 9 10 11 11 11 11 10 9 8 8 7 6 6 4 4 6 7 10 10 11 10 9 8 8
10 10 9 10 10 10 10 10 9 9 9 8 8 8 7 7 7 7 9 10 10 10 10 10 10 10 10 8 8 7 7 7 3 2 7 6 10 11 10 10 8 8 7
9 9 8 7 7 6 7 9 9 8 8 8 8 8 7 6 7 8 8 9 9 10 10 11 11 11 10 9 8 8 8 7 4 3 4 7 11 10 10 9 8 7 7
8 7 7 6 5 5 5 7 7 8 8 7 6 7 6 3 4 5 8 9 10 10 10 11 11 11 10 10 10 10 8 4 2 3 5 10 11 10 9 9 8 8 7
7 6 6 6 5 4 4 4 3 4 4 4 3 4 3 2 2 4 7 9 10 10 10 10 10 10 8 6 8 9 4 4 2 3 6 13 11 11 10 9 8 8 8
6 6 6 6 4 4 3 2 1 2 2 2 3 2 2 2 2 3 3 5 6 7 6 8 8 6 6 4 4 5 4 2 2 4 7 12 11 10 9 9 8 8 8
6 6 5 5 4 3 2 1 2 2 2 2 3 2 2 1 1 2 2 3 4 3 4 4 3 4 5 5 4 4 4 3 3 4 6 12 11 10 10 9 9 8 9
6 6 5 4 4 3 1 0 1 2 3 3 3 1 2 1 1 1 1 2 2 3 3 3 3 3 2 3 3 3 3 3 3 4 5 11 11 10 10 10 9 9 9
6 5 5 4 4 3 1 0 1 2 2 3 2 2 1 1 2 1 2 1 2 2 2 2 3 2 2 2 2 2 2 3 3 4 5 7 11 11 10 10 10 9 10
6 5 4 5 4 3 2 1 2 1 3 2 2 3 2 2 2 2 2 1 1 2 2 2 2 2 3 2 3 3 2 2 3 3 5 4 6 9 10 10 10 10 10
6 5 3 4 5 3 2 1 1 2 2 2 2 3 3 2 2 2 1 1 2 2 2 2 2 2 2 2 2 2 2 2 3 3 3 4 4 5 8 11 10 10 10
6 5 3 3 4 3 3 2 1 2 2 2 2 2 3 3 3 2 1 1 2 1 1 2 2 2 2 2 2 2 2 3 3 4 4 4 4 5 5 8 10 10 10
6 5 4 3 3 2 2 2 1 2 2 2 2 2 3 2 2 2 2 2 1 2 2 2 2 1 1 2 2 2 2 3 3 3 4 4 4 5 6 6 6 7 10
7 5 5 4 3 2 1 2 2 1 2 2 2 3 3 3 2 2 2 2 1 2 2 2 2 2 1 1 1 1 1 2 3 3 3 3 4 4 4 5 5 4 5
7 6 5 4 4 3 2 1 1 2 2 2 2 2 3 3 2 2 3 2 2 2 2 2 2 1 1 1 1 1 0 0 1 2 3 3 3 2 3 5 5 4 4
8 7 5 5 4 4 3 2 1 1 1 2 2 2 2 2 2 2 3 2 2 2 2 2 2 2 1 1 1 2 1 1 0 1 2 3 3 3 2 3 5 5 6
8 8 6 5 4 4 3 2 3 2 2 2 2 2 2 2 2 2 2 2 2 1 1 2 2 1 1 1 1 1 1 1 1 1 1 1 3 3 3 4 4 4 4
8 8 7 6 5 4 3 3 2 1 2 2 2 3 2 2 2 2 2 2 2 1 1 1 1 1 1 1 1 1 1 1 2 1 1 1 1 2 3 4 3 3 4
7 8 8 7 6 5 4 3 3 2 2 2 2 3 3 2 2 2 2 2 1 1 1 1 1 0 1 1 1 1 1 1 1 2 2 2 2 2 3 3 4 4 4
Wind_Direction
88 103 105 102 102 107 107 104 102 109 110 110 108 108 109 110 117 124 128 131 131 131 132 131 130 129 126 122 118 113 114 113 112 111 109 106 105 108 111 117 118 105 107
95 108 109 107 105 110 112 108 105 107 111 110 109 109 110 111 116 122 131 136 136 135 134 133 133 132 132 130 126 122 125 125 127 128 124 116 110 106 103 102 104 112 114
93 107 107 107 110 113 116 113 110 109 109 109 113 113 113 113 117 124 133 138 139 139 138 139 139 137 137 134 132 132 137 142 147 149 149 133 120 114 109 105 108 113 114
96 102 102 108 112 113 116 115 113 111 110 110 114 115 116 119 123 130 134 141 143 143 143 144 145 144 142 141 142 147 156 163 171 177 177 136 125 121 117 114 115 116 116
94 101 109 114 115 114 114 119 118 113 110 110 111 114 115 116 121 128 132 139 144 146 148 150 149 148 147 148 153 160 171 181 193 203 146 118 114 128 127 125 124 123 123
100 104 114 117 118 119 118 118 120 118 114 115 114 115 116 117 121 127 134 138 144 149 154 154 151 152 154 157 164 171 187 200 212 194 147 126 123 133 132 132 130 130 130
100 104 113 120 121 123 125 123 125 123 121 121 118 119 122 125 130 135 139 141 145 152 155 157 157 158 160 166 174 184 199 215 222 167 125 117 128 135 135 135 134 135 137
100 103 110 122 125 125 128 127 129 128 128 129 126 126 127 129 132 139 143 145 149 153 157 160 163 162 163 172 182 195 214 227 209 152 123 121 135 140 141 140 141 145 144
101 106 111 120 124 133 136 133 133 135 137 137 133 132 133 135 140 143 148 149 153 155 158 161 166 169 170 180 193 205 215 227 245 158 130 128 142 145 146 147 149 151 150
98 102 105 113 117 128 135 140 140 144 145 145 144 144 145 152 155 154 153 152 158 162 163 167 171 174 176 186 200 213 221 230 224 162 123 134 144 150 152 153 156 158 158
92 96 101 104 115 126 129 132 144 149 148 150 153 153 156 162 158 157 151 159 165 167 170 174 177 180 184 194 205 217 227 226 183 134 125 141 151 156 162 163 166 167 169
96 96 93 85 82 85 101 121 142 141 141 158 152 156 161 154 153 140 147 165 173 175 178 180 184 185 192 196 206 213 220 206 176 134 137 152 157 161 165 168 174 174 178
103 95 92 92 83 77 84 117 127 132 139 150 136 136 140 152 152 146 155 161 173 180 188 180 190 193 192 195 190 193 199 196 158 132 146 157 161 166 168 170 175 179 182
101 95 88 95 91 76 72 95 138 132 140 137 132 144 140 160 149 151 152 163 165 174 175 172 184 182 187 187 186 184 179 170 139 127 151 161 165 170 174 178 182 189 190
107 105 103 97 98 97 88 280 125 131 128 131 132 149 134 145 133 109 110 121 138 148 160 170 166 159 157 162 172 168 159 153 149 141 150 168 171 176 182 188 193 199 201
115 109 111 114 104 100 92 55 98 113 114 123 134 134 122 118 118 111 110 109 129 141 144 151 145 154 166 161 157 159 163 161 148 147 152 168 177 182 187 194 198 201 203
121 113 118 128 113 107 97 122 123 113 115 125 132 132 126 105 116 122 115 137 138 129 136 137 152 157 167 167 168 171 158 162 150 148 153 165 180 190 193 196 196 199 202
126 119 124 123 117 113 111 111 98 102 106 117 127 135 133 120 110 109 138 146 128 127 136 144 167 150 151 154 155 162 157 154 164 168 171 174 177 187 195 198 201 203 206
126 126 124 105 115 128 127 129 112 105 107 116 120 124 132 141 140 140 124 106 134 135 143 155 134 140 152 148 148 163 164 168 181 190 181 185 187 182 181 192 199 201 206
132 133 136 129 118 124 132 131 102 109 115 119 110 111 129 143 140 138 127 134 148 126 125 108 111 137 138 149 174 173 172 177 185 187 194 197 193 190 184 182 189 205 211
140 142 144 140 130 134 132 142 148 137 134 124 130 133 134 134 133 132 119 128 129 116 121 122 124 139 154 150 113 102 180 188 185 188 200 203 193 187 177 175 179 192 198
151 154 157 148 147 153 146 147 150 150 143 138 122 123 131 133 141 149 125 131 122 123 133 133 123 124 158 167 160 166 197 206 188 205 186 196 193 183 183 188 185 190 193
161 160 159 155 155 165 157 152 149 135 124 111 118 124 127 125 121 104 121 121 113 126 151 162 169 189 185 220 203 184 180 202 210 234 206 195 182 182 192 194 193 194 197
162 158 154 152 152 157 158 161 169 155 140 134 134 129 129 115 110 113 123 135 140 141 148 178 156 193 204 234 220 221 218 172 193 226 244 202 191 184 200 215 208 188 195
162 157 155 147 147 150 160 162 169 161 149 133 134 133 133 132 138 135 132 141 153 157 138 114 102 168 222 245 248 226 215 209 223 205 233 243 221 203 202 204 197 194 189
157 159 159 149 152 157 163 165 173 171 141 138 144 143 153 154 162 157 152 152 151 157 154 149 134 161 278 284 290 276 245 219 232 225 221 235 239 232 206 194 195 191 182